Regional Weather Roundup
Issued by NWS

Home | Current Version | Previous Version | Text Only | Print | Product List | Glossary On
Versions: 1 2 3 4 5 6 7 8 9 10 11 12 13 14 15 16 17 18 19 20 21 22 23 24 25 26 27 28 29 30 31 32 33 34 35 36 37 38 39 40 41 42 43 44 45 46 47 48 49 50
000
ASUS43 KMKX 310921
RWRWI

WISCONSIN REGIONAL WEATHER ROUNDUP
NATIONAL WEATHER SERVICE MILWAUKEE/SULLIVAN WI
400 AM CDT SUN AUG 31 2014

NOTE: "FAIR" INDICATES FEW OR NO CLOUDS BELOW 12,000 FEET WITH NO
SIGNIFICANT WEATHER AND/OR OBSTRUCTIONS TO VISIBILITY.

WIZ001-002-006>008-014>016-023>028-311000-
NORTHWEST WISCONSIN

CITY           SKY/WX    TMP DP  RH WIND       PRES   REMARKS
SUPERIOR ARPT  CLOUDY    57  57  99 CALM      29.90F
ASHLAND        MOCLDY    51  51 100 SE3       29.93F FOG
HAYWARD        PTCLDY    55  55 100 CALM      29.92F
SIREN          CLEAR     58  57  97 E5        29.90S
RICE LAKE      PTCLDY    58  56  93 E6        29.92F
LADYSMITH      CLEAR     54  53  95 CALM      29.97R
EAU CLAIRE     PTCLDY    56  56 100 E5        29.90F FOG
MENOMONIE      FOG       59  58  99 E3        29.91F VSB<1/4
NEW RICHMOND   CLOUDY    58  58 100 E3        29.89F FOG
OSCEOLA        CLOUDY    60  60 100 SE6       29.91F
$$

WIZ003>005-009-010-017-018-311000-
NORTH CENTRAL WISCONSIN

CITY           SKY/WX    TMP DP  RH WIND       PRES   REMARKS
WOODRUFF       FOG       52  50  95 CALM      29.95R VSB 1/2
RHINELANDER    FOG       51  51 100 CALM      29.95F VSB 3/4
EAGLE RIVER    FOG      N/A N/A N/A CALM      29.94R VSB 1/4
LAND O LAKES   FOG       55  55 100 CALM      29.95R VSB 1/2
PHILLIPS       FOG       51  51 100 CALM      29.95R VSB 1
TOMAHAWK       FOG       49  48  98 CALM      29.95S VSB 1/2
MEDFORD        MOCLDY    52  52 100 CALM      29.94F
MERRILL        MOCLDY    51  51 100 CALM      29.94F
$$

WIZ029-030-035-036-043>047-311000-
CENTRAL WISCONSIN

CITY           SKY/WX    TMP DP  RH WIND       PRES   REMARKS
WAUSAU         CLOUDY    61  57  87 NE3       29.93R
MOSINEE        CLOUDY    59  59 100 NE3       29.95S
MARSHFIELD     CLOUDY    62  59  90 E5        29.93S
STEVENS POINT  CLOUDY    60  59  97 CALM      29.94S
WAUPACA        CLOUDY    64  63  95 CALM      29.93S
WAUTOMA        CLOUDY    65  64  96 CALM      29.94R
WISC RAPIDS    MOCLDY    60  59  96 CALM      29.94S FOG
CAMP DOUGLAS   PTCLDY    59  59 100 CALM      29.93S
$$

WIZ011>013-019>022-031-037>040-048>050-311000-
NORTHEAST WISCONSIN

CITY           SKY/WX    TMP DP  RH WIND       PRES   REMARKS
ANTIGO         MOCLDY    54  54 100 W3        29.96R
STURGEON BAY   CLOUDY    61  57  88 W3        29.92R
GREEN BAY      CLOUDY    63  60  90 NW5       29.92R
MANITOWOC      CLOUDY    65  63  93 CALM      29.92R
APPLETON       CLOUDY    63  61  94 N3        29.93R
CLINTONVILLE   CLOUDY    63  59  88 CALM      29.92S
OSHKOSH        CLOUDY    64  62  93 CALM      29.91S
$$

WIZ032>034-041-042-053>061-311000-
SOUTHWEST WISCONSIN

CITY           SKY/WX    TMP DP  RH WIND       PRES   REMARKS
LA CROSSE      MOCLDY    64  62  93 CALM      29.91S
SPARTA         CLOUDY    60  59  97 CALM      29.93S
VIROQUA        CLOUDY    64  64 100 E5        29.93S
BOSCOBEL       FOG       66  64  93 CALM      29.92R VSB 1/2
PRAIRIE DU CHI CLOUDY    64  62  94 E3        29.91S
PLATTEVILLE    FAIR      61  60  96 CALM      29.93S
$$

WIZ056-057-062-063-064-067-068-311000-
SOUTH CENTRAL WISCONSIN

CITY           SKY/WX    TMP DP  RH WIND       PRES   REMARKS
BARABOO/DELLS  CLOUDY    65  63  93 CALM      29.93R
LONE ROCK      FOG       68  64  87 CALM      29.92R VSB 1/4
WATERTOWN      FOG       63  63 100 CALM      29.91S VSB<1/4
MADISON        FOG       61  59  93 N5        29.92R VSB 1/4
MIDDLETON      CLOUDY    61  61 100 CALM      29.93R VSB 1/4
MONROE         CLEAR     63  63 100 SW5       29.93R FOG
JANESVILLE     FOG       63  61  94 CALM      29.91R VSB 1/4
$$

WIZ051-052-058>065-066-070>072-311000-
SOUTHEAST WISCONSIN

CITY           SKY/WX    TMP DP  RH WIND       PRES   REMARKS
MILWAUKEE      PTCLDY    66  64  93 CALM      29.91R
WAUKESHA       CLOUDY    61  61 100 CALM      29.93R FOG
MILWAUKEE/TIMM FOG       63  61  94 CALM      29.92R VSB 1
RACINE         PTCLDY    65  63  93 SW3       29.93R
BURLINGTON       N/A     62  62 100 CALM      29.92S FOG
KENOSHA        CLEAR     63  63 100 CALM      29.93R FOG
FOND DU LAC    MOCLDY    63  62  97 CALM      29.92R
SHEBOYGAN      CLOUDY    65  63  93 NE3       29.91S
WEST BEND      FOG       61  59  94 CALM      29.91S VSB<1/4
JUNEAU         FOG       61  61 100 CALM      29.93R VSB<1/4
$$

LSZ147-162-311000-
LAKE SUPERIOR

STATION/POSITION TIME  TEMP    WIND        PRES    WAVE
                       AIR SEA DIR/SP/G            HT/PER
                 (UTC) (F)     (DEG/KT/KT) (MB)    (FT/S)
W MID LAKE BUOY  0850   58 58  310/  6/  6 1013.4R   0
DEVILS ISLAND    0900   60      10/  1/  2 1013.8R
PORT WING        0800   55     140/  2/  3 1013.5R
SAXON HARBOR     0800   54      CALM  /  4 1013.9R
$$

LMZ867-665-643>646-311000-
LAKE MICHIGAN

STATION/POSITION TIME  TEMP    WIND        PRES    WAVE
                       AIR SEA DIR/SP/G            HT/PER
                 (UTC) (F)     (DEG/KT/KT) (MB)    (FT/S)
N MID LAKE BUOY  0850   62 65  310/  8/ 10 1012.0R
NORTHPORT PIER   0800   63     350/  7/ 12 1012.2R
KEWAUNEE LAKESHO 0900   61      CALM  /  1 1012.0R
SHEBOYGAN LAKESH 0900   63 52   10/  4/  4 1012.9R
ATWATER BUOY     0900   66     340/  6/  6 1014.1R
MILWAUKEE LAKESH 0900   68      20/  3/  4   N/A
S MID LAKE BUOY  0850   70 69  240/  8/  8 1012.6R   1
KENOSHA   LAKESH 0800   70     260/  5/  6 1012.5R
$$

TC  - TEMPERATURE IN CELSIUS
VSB - VISIBILITY IN STATUTE MILES
WCI - WIND CHILL INDEX
HX  - HEAT INDEX



USA.gov is the U.S. government's official web portal to all federal, state and local government web resources and services.